OPS 4682 DEB, 18784

Orbit data source: Space-Track

OPS 4682 DEB, 18784 is space debris in LEO originally from a launch on Sat, 03 Apr 1965 UTC launched from the Air Force Western Test Range (AFWTR). Debris objects in space refer to the collection of defunct objects orbiting the Earth. Examples of debris include non-operational satellites, rocket bodies, and fragments generated from explosions, collisions, or faulty payload assembly.

Loading next visibility...
Identifier
18784, 1965-027AL
Orbit
LEO
Country
Flag of USUS
Related business
Manufacturer
Unknown
Mission
Spacecraft
Bus & Motor
Unknown
Mass
Unknown
Launch date (UTC)
1965-04-03 (61 years ago)
Launch vehicle
Unknown
Launch site
Air Force Western Test Range (AFWTR)
Object type
Payload
Rocket body
Debris
Shape & HBR
Unknown shape, 0.1 m
Radar Cross Section
Medium (>0.1 m² and <1 m²)

Expand to show TLE details & history
Last TLE update: 2 days ago

TLE from 2 days ago
0 OPS 4682 DEB
1 18784U 65027AL  26262.07507213 -.00000037  00000-0 -15215-3 0  9990
2 18784  90.2582   6.5735 0039793 225.2680 312.6782 12.97121862814559
Epoch: 2026-09-19T01:48Z
TLE epoch observation values (Epoch: 2026-09-19T01:48:06.232Z)
Latitude
2.29127°
Longitude
161.569°
Altitude
1,255.418 km
Speed
7.237 km/s
True Right ascension
12h 26m 20s
True Declination
2° 16' 42"
Sunlit
Object was in daylight at epoch
Visualization orbit readout
Latitude
Unknown
Longitude
Unknown
Altitude
Unknown
Speed
Unknown
Apparent Right ascension
Unknown
Apparent Declination
Unknown
Sunlit
N/A
Visualization observer readout
Local Sidereal Time
06:57:50
Azimuth
Unknown
Elevation
Unknown
Doppler factor
Unknown
Orbital elements
Apogee altitude
1,300.952 km
Perigee altitude
1,240.079 km
Semi-major axis
7,648.652 km
Eccentricity
0.00398
Inclination
90.2582°
RAAN
6.5735°
Arg. of periapsis
225.268°
True anomaly
312.34183°
Mean anomaly
312.6782°
Eccentric anomaly
312.51013°
Mean motion
3.24463 °/min
Orbital period
110.95 mins
BSTAR
-0.00015215
Loading maneuver chart data...
Computing Atmospheric mass density...
Loading historical data...
Loading historical data...
Loading historical data...
Loading historical data...
Loading historical data...
Loading historical data...
Loading historical data...

Documentation

Showing up to 5 results
|